Logan Peak - 24 Hour Table
Date & TimeSolar
Radiation
(W/m²)
Wind
Speed
(mph)
Wind
Direction
(degrees)
Air
Temperature
(°F)
Relative
Humidity
(%)
Barometeric
Pressure
(inHg)
2017/01/17 18:00 8 11.4 279 32.0 45 29.83
2017/01/17 17:00 128 10.7 291 30.0 25 29.83
2017/01/17 16:00 286 14.0 292 28.9 28 29.83
2017/01/17 15:00 412 14.4 296 29.8 36 29.81
2017/01/17 14:00 488 14.0 300 28.1 34 29.81
2017/01/17 13:00 506 15.5 300 27.5 28 29.82
2017/01/17 12:00 474 17.1 301 26.6 33 29.83
2017/01/17 11:00 384 18.6 306 27.1 30 29.85
2017/01/17 10:00 250 18.7 305 26.1 32 29.84
2017/01/17 09:00 90 18.4 308 25.1 34 29.83
2017/01/17 08:00 2 17.3 307 23.0 32 29.81
2017/01/17 07:00 0 17.3 308 22.1 45 29.80
2017/01/17 06:00 0 17.1 309 22.6 44 29.80
2017/01/17 05:00 0 13.2 311 22.0 44 29.80
2017/01/17 04:00 0 16.3 324 24.0 36 29.80
2017/01/17 03:00 0 16.2 317 20.8 27 29.80
2017/01/17 02:00 0 16.5 313 20.2 23 29.81
2017/01/17 01:00 0 15.4 314 17.3 24 29.81
2017/01/17 00:00 0 16.1 313 14.2 50 29.81
2017/01/16 23:00 0 14.9 312 15.2 62 29.82
2017/01/16 22:00 0 15.1 317 17.0 38 29.81
2017/01/16 21:00 0 13.7 322 16.5 43 29.82
2017/01/16 20:00 0 12.5 323 16.0 56 29.81
2017/01/16 19:00 0 12.6 322 16.9 69 29.82